Regional Weather Roundup
Issued by NWS New Orleans/Baton Rouge, LA

Home | Current Version | Previous Version | Graphics & Text | Print | Product List | Glossary On
Versions: 1 2 3 4 5 6 7 8 9 10 11 12 13 14 15 16 17 18 19 20 21 22 23 24 25 26 27 28 29 30 31 32 33 34 35 36 37 38 39 40 41 42 43 44 45 46 47 48 49 50
753
ASUS44 KLIX 210410
RWRLIX
NEW ORLEANS REGIONAL WEATHER ROUNDUP
NATIONAL WEATHER SERVICE NEW ORLEANS LA
1100 PM CDT SAT SEP 20 2014

NOTE: "FAIR" INDICATES FEW OR NO CLOUDS BELOW 12,000 FEET WITH NO
      SIGNIFICANT WEATHER AND/OR OBSTRUCTIONS TO VISIBILITY.
      SKY/WX - SKY CONDITION AND SIGNIFICANT WEATHER.
      TMP - AIR TEMPERATURE.     DP    - DEWPOINT TEMPERATURE.
      RH  - RELATIVE HUMIDITY.   PRES  - PRESSURE.
      HI  - HEAT INDEX.          WCI   - WIND CHILL INDEX.

*  THESE STATIONS ARE NOT NWS OR FAA STATIONS AND ARE NOT UNDER
   NWS QUALITY CONTROL.

LAZ038-040-048-061>063-065>067-069-210500-
SOUTHEAST LOUISIANA

CITY           SKY/WX    TMP DP  RH WIND       PRES   REMARKS
N.O. AUDUBON     N/A     79  73  83 MISG        N/A
N.O. INTL ARPT CLEAR     79  70  74 SE3       29.99S
N.O. LAKEFRONT CLEAR     80  70  71 E9        29.99S
N.O. DOWNTOWN*   N/A     81  66  61 CALM      29.99F
SLIDELL        CLEAR     73  69  87 NE3       29.99S
BATON ROUGE    CLEAR     74  70  87 CALM      29.99S
BOOTHVILLE     CLEAR     80  70  71 E10       29.98S
BELLE CHASSE   PTCLDY    75  70  84 NE5       29.98S
BOGALUSA*        N/A     71  67  88 CALM      30.02S
GALLIANO*      NOT AVBL
NEW ROADS*       N/A     71  70  96 CALM      29.99S
GONZALES*        N/A     72  72 100 CALM      29.98F
HAMMOND*       CLEAR     75  70  83 CALM      30.01S
HOUMA*         CLEAR     73  66  77 CALM      29.99R
PORT FOURCHON* PTCLDY    81  70  69 E12G20    30.01S

$$

MSZ070-080>082-210500-
SOUTHERN MISSISSIPPI

CITY           SKY/WX    TMP DP  RH WIND       PRES   REMARKS
MCCOMB         CLEAR     71  68  90 N5        30.02R
GULFPORT       CLEAR     75  68  78 E6        29.99S
BILOXI         CLEAR     75  68  78 E9        29.99F
PASCAGOULA     CLEAR     68  67  96 CALM      30.00S

$$

COASTAL OBSERVATIONS
LAKE AND NEARSHORE STATIONS

STATION/POSITION TIME  TEMP    WIND        PRES    WAVE
                       AIR SEA DIR/SP/G            HT/PER
                 (UTC) (F)     (DEG/KT/KT) (MB)    (FT/S)
PASCAGOULA       0400   77      50/  9/ 10 1015.3
WAVELAND YACHT   0400   79      90/  8/ 10 1014.9
GRAND ISLE       0400   80 83   90/ 10/ 15 1015.7
SOUTHWEST PASS   0400   81 90   80/ 18/ 20 1015.1
NEW CANAL        0400   79 81   CALM  /  2 1015.9
SHELL BEACH      0400   80 79   80/ 12/ 15 1015.1

OFFSHORE STATIONS

STATION/POSITION TIME  TEMP    WIND        PRES    WAVE
                       AIR SEA DIR/SP/G            HT/PER
                 (UTC) (F)     (DEG/KT/KT) (MB)    (FT/S)
64 S DAUPHIN ISL 0335   81 84   70/ 17/ 19 1015.2    4/ 6

$$




USA.gov is the U.S. government's official web portal to all federal, state and local government web resources and services.